Tracking 17560 objects as of 13-February-2016
HD Live streaming from Space Station
objects crossing your sky now

CZ-3C R/B

Track CZ-3C R/B now!
10-day predictions


NORAD ID: 36591
Int'l Code: 2010-024B
Perigee: 205.8 km
Apogee: 20,240.4 km
Inclination: 20.7 °
Period: 354.6 minutes
Semi major axis: 16594 km
RCS: 15.0139 m2 (large)
Launch date: June 2, 2010
Source: People's Republic of China (PRC)
Launch site: Xichang Space Center, China (XSC)

Note: This is a ROCKET BODY
Your satellite tracking list
Your tracking list is empty





NASA's NSSDC Master Catalog

Two Line Element Set (TLE):
1 36591U 10024B   16041.99423577 +.00023392 +00000-0 +74673-3 0  9998
2 36591 020.7438 340.3286 6036665 228.5571 061.2577 04.0613637865173
Source of the keplerian elements: AFSPC

N2YO: 782